N428JM KVGT-

Flight info

Callsign N428JM
Flight time N/A
Altitude VFR
Route
Aircraft B350/L-VGD/C

Departure

Time 2026-04-25 02:15
Airport North Las Vegas Airport (KVGT)

Arrival

Time N/A
Airport -
Time Latitude Longitude Altitude Speed Heading
2026-04-25 01:49 36.20969 -115.19880 2196 ft 0 kts 350°
2026-04-25 01:53 36.21000 -115.19919 2196 ft 0 kts 336°
2026-04-25 01:54 36.20999 -115.19919 2196 ft 0 kts 336°
2026-04-25 02:07 36.21000 -115.19919 2196 ft 0 kts 336°
2026-04-25 02:07 36.20997 -115.19917 2196 ft 1 kts 335°
2026-04-25 02:07 36.20999 -115.19917 2196 ft 1 kts
2026-04-25 02:08 36.21008 -115.19910 2196 ft 3 kts 52°
2026-04-25 02:08 36.21030 -115.19853 2195 ft 9 kts 95°
2026-04-25 02:08 36.20970 -115.19752 2194 ft 20 kts 135°
2026-04-25 02:08 36.20846 -115.19599 2188 ft 30 kts 137°
2026-04-25 02:09 36.20705 -115.19420 2181 ft 33 kts 132°
2026-04-25 02:09 36.20568 -115.19249 2167 ft 30 kts 134°
2026-04-25 02:09 36.20483 -115.19138 2166 ft 0 kts 130°
2026-04-25 02:09 36.20483 -115.19137 2166 ft 0 kts 133°
2026-04-25 02:10 36.20481 -115.19136 2166 ft 1 kts 170°
2026-04-25 02:10 36.20476 -115.19140 2164 ft 1 kts 262°
2026-04-25 02:10 36.20493 -115.19144 2167 ft 0 kts 14°
2026-04-25 02:13 36.20497 -115.19143 2160 ft 5 kts 16°
2026-04-25 02:13 36.20524 -115.19119 2164 ft 10 kts 38°
2026-04-25 02:14 36.20600 -115.19169 2169 ft 21 kts 308°
2026-04-25 02:14 36.20811 -115.19445 2183 ft 70 kts 313°
2026-04-25 02:14 36.21245 -115.20014 2231 ft 108 kts 310°
2026-04-25 02:14 36.21856 -115.20722 2405 ft 130 kts 313°
2026-04-25 02:15 36.22580 -115.21513 2790 ft 149 kts 315°
2026-04-25 02:15 36.23416 -115.22334 3215 ft 154 kts 314°
2026-04-25 02:15 36.24278 -115.23206 3442 ft 169 kts 314°
2026-04-25 02:15 36.25137 -115.24151 3930 ft 161 kts 311°
2026-04-25 02:16 36.25945 -115.25044 4434 ft 149 kts 310°
2026-04-25 02:16 36.26686 -115.25847 4876 ft 134 kts 310°
2026-04-25 02:16 36.27358 -115.26550 5345 ft 119 kts 310°
2026-04-25 02:16 36.27987 -115.27182 5630 ft 122 kts 309°
2026-04-25 02:17 36.28665 -115.27970 5580 ft 150 kts 309°
2026-04-25 02:17 36.29512 -115.28656 5647 ft 137 kts 327°